Regional Weather Roundup
Issued by NWS

Home | Current Version | Previous Version | Text Only | Print | Product List | Glossary On
Versions: 1 2 3 4 5 6 7 8 9 10 11 12 13 14 15 16 17 18 19 20 21 22 23 24 25 26 27 28 29 30 31 32 33 34 35 36 37 38 39 40 41 42 43 44 45 46 47 48 49 50
000
ASUS43 KBIS 290910
RWRND

NORTH DAKOTA REGIONAL WEATHER ROUNDUP
NATIONAL WEATHER SERVICE BISMARCK ND
400 AM CDT FRI APR 29 2016

NOTE: "FAIR" INDICATES FEW OR NO CLOUDS BELOW 12,000 FEET WITH NO
SIGNIFICANT WEATHER AND/OR OBSTRUCTIONS TO VISIBILITY.


NDZ001>003-009>011-017-291000-
NORTHWEST NORTH DAKOTA

CITY           SKY/WX    TMP DP  RH WIND       PRES   REMARKS
WILLISTON      CLOUDY    35  25  66 NE6       30.16S
MINOT          CLOUDY    40  19  43 N3        30.19R
MINOT AFB      CLOUDY    38  22  51 NE6       30.19R
$$

NDZ018>021-031>035-040>046-291000-
SOUTHWEST NORTH DAKOTA

CITY           SKY/WX    TMP DP  RH WIND       PRES   REMARKS
BISMARCK       MOCLDY    37  31  78 CALM      30.17R
DICKINSON      PTCLDY    35  25  66 E7        30.12R
GARRISON         N/A     33  24  69 CALM      30.17R
HETTINGER ARPT CLOUDY    38  35  89 CALM      30.13S
$$

NDZ004>008-012>016-024-026-027-054-291000-
NORTHEAST NORTH DAKOTA

CITY           SKY/WX    TMP DP  RH WIND       PRES   REMARKS
GRAND FORKS    CLOUDY    32  26  78 N5        30.18R
GRND FRKS AFB  CLOUDY    34  28  78 N6        30.18R
DEVILS LAKE    MOCLDY    35  24  64 CALM      30.19R
$$

NDZ022-023-025-028>030-036>039-047>053-291000-
SOUTHEAST NORTH DAKOTA

CITY           SKY/WX    TMP DP  RH WIND       PRES   REMARKS
FARGO          CLOUDY    36  32  85 E5        30.15R
JAMESTOWN      CLOUDY    34  27  75 NW6       30.16R
$$





USA.gov is the U.S. government's official web portal to all federal, state and local government web resources and services.